Regional Weather Roundup
Issued by NWS Wilmington, NC

Home | Current Version | Previous Version | Text Only | Print | Product List | Glossary On
Versions: 1 2 3 4 5 6 7 8 9 10 11 12 13 14 15 16 17 18 19 20 21 22 23 24 25 26 27 28 29 30 31 32 33 34 35 36 37 38 39 40 41 42 43 44 45 46 47 48 49 50
000
ASUS42 KILM 231513
RWRILM
RWRILM
REGIONAL HOURLY WEATHER ROUNDUP
NATIONAL WEATHER SERVICE WILMINGTON NC
1100 AM EDT FRI JUN 23 2017

NOTE: "FAIR" INDICATES FEW OR NO CLOUDS BELOW 12,000 FEET WITH NO
SIGNIFICANT WEATHER AND/OR OBSTRUCTIONS TO VISIBILITY.

...............WFO WILMINGTON COUNTY WARNING AREA...............

......COASTAL NC AND SC COUNTIES......

CITY           SKY/WX    TMP DP  RH WIND       PRES   REMARKS
WILMINGTON     CLOUDY    85  75  72 SW16      30.03F HX  93
N MYRTLE BEACH MOSUNNY   84  75  74 SW16      30.04S HX  92
MYRTLE BEACH   PTSUNNY   84  73  70 SW12      30.05F HX  91

......INLAND NC AND SC COUNTIES.......

CITY           SKY/WX    TMP DP  RH WIND       PRES   REMARKS
LUMBERTON      PTSUNNY   83  76  79 SW7       30.01F HX  91
ELIZABETHTOWN  NOT AVBL
WHITEVILLE     PTSUNNY   85  74  70 SW9       30.03S HX  93
FLORENCE       CLOUDY    83  76  79 SW9       30.03F HX  91
DARLINGTON     CLOUDY    83  76  79 S10       30.03S HX  91
KINGSTREE      CLOUDY    81  73  78 SW7       30.04S
HARTSVILLE       N/A    N/A N/A N/A MISG        N/A
BENNETTSVILLE  PTSUNNY   86  77  74 SW8       30.01F HX  97
CONWAY         CLOUDY    82  75  78 SW8       30.04S HAZE
GEORGETOWN     FAIR      82  75  78 SW9       30.06S
MARION         CLOUDY    82  73  74 SW8       30.03F

....................REST OF NORTH CAROLINA......................

.........EASTERN NC.........

CITY           SKY/WX    TMP DP  RH WIND       PRES   REMARKS
CAPE HATTERAS  CLOUDY    83  76  79 SW7       30.02F HX  91
JACKSONVILLE   MOSUNNY   82  76  81 SW8G18    30.02S
MOREHEAD CITY  CLOUDY    82  79  90 SW14      30.03S HX  92
KENANSVILLE    CLOUDY    82  75  78 SW12G22   30.01F
NEW BERN       CLOUDY    82  76  81 SW9       30.02F
ELIZABETH CITY CLOUDY    83  78  85 SW14      29.97F HX  93

.........CENTRAL NC.........

CITY           SKY/WX    TMP DP  RH WIND       PRES   REMARKS
RALEIGH DURHAM CLOUDY    80  75  84 SW16      29.98F
ROCKY MOUNT    CLOUDY    79  76  90 SW12      29.98F
ROANOKE RAPIDS NOT AVBL
FAYETTEVILLE   CLOUDY    84  76  76 SW12      30.01S HX  93
HOFFMAN        CLOUDY    81  74  77 W12       30.01F

.........WESTERN NC.........

CITY           SKY/WX    TMP DP  RH WIND       PRES   REMARKS
CHARLOTTE      PTSUNNY   81  72  74 SW10G23   30.02S
GREENSBORO     PTSUNNY   81  75  82 SW14      29.97S
HICKORY        NOT AVBL
BOONE          NOT AVBL
ASHEVILLE      NOT AVBL

.....................REST OF SOUTH CAROLINA.....................

.........EASTERN SC.........

CITY           SKY/WX    TMP DP  RH WIND       PRES   REMARKS
CHARLESTON     CLOUDY    85  74  69 SW12      30.05S HX  92
BEAUFORT MCAS  MOSUNNY   87  77  72 SW10      30.05S HX  99
HILTON HEAD    MOSUNNY   84  75  74 S12G17    30.07S HX  92

.........CENTRAL SC.........

CITY           SKY/WX    TMP DP  RH WIND       PRES   REMARKS
COLUMBIA       CLOUDY    86  73  65 SW9       30.02S HX  93
ORANGEBURG     MOSUNNY   84  75  74 SW7       30.04F HX  92
SUMTER SHAW    CLOUDY    84  73  70 S12       30.01S HX  91

.........WESTERN SC.........

CITY           SKY/WX    TMP DP  RH WIND       PRES   REMARKS
GREENVILLE     NOT AVBL
ROCK HILL      PTSUNNY   82  71  69 SW15      30.03S
ANDERSON       MOSUNNY   82  71  69 SW12      30.02F
CLEMSON        NOT AVBL
GREENWOOD      MOSUNNY   81  72  74 SW8       30.04F


...................COASTAL AND OFFSHORE REPORTS..................

................LOCAL PIERS AND NC RESERVE................


STATION/POSITION TIME  SKY/WX   TEMP    WIND        PRES    VSBY
                                AIR SEA DIR/SP/G
                 (UTC)          (F)     (DEG/KT/KT) (MB)    (MI)
JOHNY MRCER PIER 1448            83 79  220/ 13/ 16 1016.0F
NC RESRV MASNBRO 1345            83     250/  4     1018.0
OCEAN CREST PIER NOT AVBL
SPRINGMAID  PIER 1448                               1016.7F


................COASTAL AND OFFSHORE BUOYS................


STATION/POSITION TIME  SKY/WX   TEMP    WIND        PRES    VSBY
                                AIR SEA DIR/SP/G
                 (UTC)          (F)     (DEG/KT/KT) (MB)    (MI)
DIMNDSHOAL 41025 1450            80 80  240/ 12/ 14 1016.9
WVE H/P(F/S)=  3/ 9 SWL H/P/D(F/S/D)=  2/170/ 9

CAPE LOOKOUT     1400            81     230/ 10/ 14 1016.8F
ONSLOW BAY 41036 NOT AVBL
ONSLOW BAY 41064 1408            80 80  240/ 14/ 19 1017.4F
ONSLOW BAY 41159 1443               81                N/A
WVE H/P(F/S)=  4/ 9

MASNBO INL 41110 1459               79                N/A
WVE H/P(F/S)=  3/ 8

WILM HARBR 41108 NOT AVBL
27SE WRITB 41037 1408            79 80  220/ 14/ 17 1017.3F
FRYING PAN 41013 1450            81 81  230/ 16/ 17 1017.9S
WVE H/P(F/S)=  4/ 8 SWL H/P/D(F/S/D)=  3/140/ 8

SUNST NRSH 41024 NOT AVBL
CAPRS NRSH 41029 1408            86 82  230/ 16/ 21 1017.6S
EDISTO     41004 1450            81 81  220/ 14/ 17 1018.0S
WVE H/P(F/S)=  4/ 8 SWL H/P/D(F/S/D)=  2/140/ 8



..........OFFSHORE BUOYS BEYOND 100 NM OFFSHORE...........
.....IN A TRIANGLE---HAT TO BERMUDA TO BAHAMAS TO HAT.....


STATION/POSITION TIME  SKY/WX   TEMP    WIND        PRES    VSBY
                                AIR SEA DIR/SP/G
                 (UTC)          (F)     (DEG/KT/KT) (MB)    (MI)
150E HAT   41001 1450            78 79  160/  4/  4 1018.4R
WVE H/P(F/S)=  4/ 8 SWL H/P/D(F/S/D)=  3/160/ 8

W BERMUDA  41048 1450            80 81  270/  8/ 10 1020.9R
WVE H/P(F/S)=  3/ 8 SWL H/P/D(F/S/D)=  3/140/ 8

ATLANTIC S 41049 1350            80 81   70/  8/ 10 1020.7
WVE H/P(F/S)=  5/ 8 SWL H/P/D(F/S/D)=  5/ 90/ 8

E BAHAMAS  41046 1450            81 83   90/ 10/ 14 1019.0S
WVE H/P(F/S)=  5/ 8 SWL H/P/D(F/S/D)=  3/130/ 8

NE BAHAMAS 41047 1450            81 83  110/  8/ 10 1021.0S
WVE H/P(F/S)=  3/ 8 SWL H/P/D(F/S/D)=  3/130/ 8

120E CANVRL41010 1450            82 83  160/ 10/ 12 1019.0S
WVE H/P(F/S)=  5/ 9 SWL H/P/D(F/S/D)=  5/130/ 9


END



USA.gov is the U.S. government's official web portal to all federal, state and local government web resources and services.